Location: Ferintosh
(52.7647°N, 112.9692°W)
Time: 14:32:40
(UTC+00:00)

Transit 2A Rocket - Pass Details

Date: 25 May 2024
Orbit: 583 x 910 km, 66.7° (Epoch: 14 June)

Event Time Altitude Azimuth Distance (km) Brightness Sun altitude
Rises 09:38:36 0° 168° (SSE) 2,992 - -11.0°
Exits shadow 09:39:38 - 163° (SSE) 2,652 7.4 -10.9°
Reaches altitude 10° 09:41:24 10° 151° (SSE) 2,143 7.0 -10.8°
Maximum altitude 09:44:45 19° 107° (ESE) 1,698 7.0 -10.5°
Drops below altitude 10° 09:48:19 10° 64° (ENE) 2,304 8.5 -10.2°
Sets 09:51:28 0° 47° (NE) 3,304 10.1 -9.9°
